User: anonymous
Location: Caltech
(34.1382°N, 118.1253°W)
Time: 05:59:46
(UTC-07:00)
Language:

Cosmos 1833 Rocket - Orbit

View from above orbital plane
View from above orbital plane
View from above satellite
View from above satellite

Ground track
Ground track

The orbit data is extracted from the following two-line orbital elements,

1 17590U 87027B   14206.08059509  .00000211  00000-0  12986-3 0  7323
2 17590 071.0016 217.9419 0003056 130.7367 229.4022 14.16642552414267
Epoch (UTC): 25 July 2014 01:56:03
Eccentricity: 0.0003056
inclination: 71.0016°
perigee height: 834 km
apogee height: 839 km
right ascension of ascending node: 217.9419°
argument of perigee: 130.7367°
revolutions per day: 14.16642552
mean anomaly at epoch: 229.4022°
orbit number at epoch: 41426

The dashed part of the orbit path shows where the satellite is in the earth's shadow,  

DLR